EW4652 Weather Reports


Display with metric or nautical units.
time (UTC)temp
F
wind
direction
speed
MPH
gust
MPH
rain 1hr
in
rain 24hr
in
rain mn
in
humidity
%
barometer
mb
20260510204508 65 288 10.0 16.0 0.00 0.00 0.00 32 1019.7
20260510203006 64 320 9.0 18.0 0.00 0.00 0.00 32 1019.7
20260510201505 65 279 14.0 23.0 0.00 0.00 0.00 31 1019.9
20260510200005 65 348 11.0 20.0 0.00 0.00 0.00 30 1019.9
20260510194503 63 313 8.0 19.0 0.00 0.00 0.00 31 1020.1
20260510193005 62 315 6.0 18.0 0.00 0.00 0.00 32 1020.3
20260510191502 62 292 11.0 22.0 0.00 0.00 0.00 32 1020.5
20260510184559 63 296 13.0 20.0 0.00 0.00 0.00 33 1020.5
20260510183059 62 305 12.0 22.0 0.00 0.00 0.00 31 1020.7
20260510181601 64 277 19.0 30.0 0.00 0.00 0.00 30 1020.8
20260510180109 61 325 13.0 23.0 0.00 0.00 0.00 31 1021.0
20260510174554 61 325 11.0 20.0 0.00 0.00 0.00 31 1021.1
20260510173052 62 304 11.0 28.0 0.00 0.00 0.00 32 1021.1
20260510171550 60 297 9.0 18.0 0.00 0.00 0.00 34 1021.1
20260510170052 61 290 19.0 24.0 0.00 0.00 0.00 33 1021.3
20260510164554 61 329 12.0 22.0 0.00 0.00 0.00 33 1021.2
20260510163046 60 311 9.0 21.0 0.00 0.00 0.00 35 1021.2
20260510161543 59 290 13.0 23.0 0.00 0.00 0.00 35 1021.1
20260510160041 59 330 8.0 20.0 0.00 0.00 0.00 35 1021.1
20260510154547 59 327 9.0 19.0 0.00 0.00 0.00 35 1021.1
20260510153037 58 298 13.0 23.0 0.00 0.00 0.00 36 1021.1
20260510151534 58 329 7.0 18.0 0.00 0.00 0.00 39 1021.0
20260510150030 58 300 14.0 20.0 0.00 0.00 0.00 38 1020.9
20260510144530 56 304 10.0 16.0 0.00 0.00 0.00 39 1021.0
20260510143023 55 284 11.0 16.0 0.00 0.00 0.00 40 1021.1
20260510141521 54 279 9.0 15.0 0.00 0.00 0.00 43 1021.1
20260510140016 54 267 10.0 15.0 0.00 0.00 0.00 41 1021.1
20260510134513 53 262 8.0 12.0 0.00 0.00 0.00 44 1021.0
20260510133008 51 271 9.0 12.0 0.00 0.00 0.00 44 1020.9
20260510131504 49 286 7.0 12.0 0.00 0.00 0.00 51 1020.9
20260510130122 48 290 5.0 8.0 0.00 0.00 0.00 54 1020.9
20260510124602 46 298 4.0 8.0 0.00 0.00 0.00 55 1020.9
20260510123054 44 279 6.0 8.0 0.00 0.00 0.00 57 1020.8
20260510121546 41 323 2.0 3.0 0.00 0.00 0.00 62 1020.7
20260510120043 40 323 1.0 3.0 0.00 0.00 0.00 63 1020.5
20260510114543 38 348 0.0 2.0 0.00 0.00 0.00 65 1020.6
20260510113033 35 351 0.0 2.0 0.00 0.00 0.00 69 1020.6
20260510111531 32 351 0.0 2.0 0.00 0.00 0.00 73 1020.4
20260510110033 31 351 0.0 2.0 0.00 0.00 0.00 72 1020.4
20260510104527 31 351 0.0 2.0 0.00 0.00 0.00 71 1020.3
20260510103027 31 351 0.0 1.0 0.00 0.00 0.00 73 1020.1
20260510101521 32 355 0.0 2.0 0.00 0.00 0.00 69 1019.8
20260510100017 33 302 0.0 5.0 0.00 0.00 0.00 71 1019.5
20260510094514 33 12 1.0 3.0 0.00 0.00 0.00 66 1019.3
20260510093011 34 12 0.0 0.0 0.00 0.00 0.00 67 1019.1
20260510091510 35 12 0.0 0.0 0.00 0.00 0.00 66 1019.1
20260510090006 37 12 0.0 1.0 0.00 0.00 0.00 60 1018.9
20260510084602 40 12 0.0 2.0 0.00 0.00 0.00 54 1018.9
20260510083059 41 12 1.0 3.0 0.00 0.00 0.00 53 1018.7
20260510081553 42 11 1.0 3.0 0.00 0.00 0.00 52 1018.5
20260510074552 43 13 2.0 5.0 0.00 0.00 0.00 51 1018.2
20260510073103 43 344 2.0 4.0 0.00 0.00 0.00 50 1018.0
20260510071541 44 350 2.0 8.0 0.00 0.00 0.00 49 1017.9
20260510070039 45 344 3.0 8.0 0.00 0.00 0.00 47 1017.8
20260510064549 45 329 2.0 8.0 0.00 0.00 0.00 47 1017.6
20260510063035 45 327 2.0 9.0 0.00 0.00 0.00 46 1017.6
20260510061534 45 311 3.0 8.0 0.00 0.00 0.00 46 1017.5
20260510060030 45 317 2.0 6.0 0.00 0.00 0.00 46 1017.3
20260510054528 45 308 4.0 9.0 0.00 0.00 0.00 45 1017.1
20260510053038 45 344 3.0 6.0 0.00 0.00 0.00 45 1016.9
20260510051530 45 336 3.0 5.0 0.00 0.00 0.00 45 1016.8
20260510050018 45 327 3.0 6.0 0.00 0.00 0.00 45 1016.6
20260510044518 45 323 3.0 8.0 0.00 0.00 0.00 44 1016.6
20260510043016 44 323 2.0 4.0 0.00 0.00 0.00 45 1016.4
20260510041517 45 342 1.0 3.0 0.00 0.00 0.00 44 1016.2
20260510040013 46 342 1.0 4.0 0.00 0.00 0.00 43 1015.9
20260510034511 47 331 1.0 5.0 0.00 0.00 0.00 42 1015.7
20260510033010 47 332 1.0 4.0 0.00 0.00 0.00 41 1015.6
20260510031510 48 347 1.0 3.0 0.00 0.00 0.00 40 1015.5
20260510030006 49 342 1.0 4.0 0.00 0.00 0.00 40 1015.2
20260510024505 49 360 0.0 3.0 0.00 0.00 0.00 38 1015.1
20260510023002 50 5 1.0 4.0 0.00 0.00 0.00 38 1014.7
20260510021606 51 350 1.0 6.0 0.00 0.00 0.00 36 1014.4
20260510020057 52 19 3.0 8.0 0.00 0.00 0.00 35 1014.0
20260510014600 53 336 3.0 8.0 0.00 0.00 0.00 34 1013.5
20260510013103 54 19 4.0 10.0 0.00 0.00 0.00 32 1013.3
20260510011548 55 332 4.0 10.0 0.00 0.00 0.00 31 1012.9
20260510010048 57 22 6.0 15.0 0.00 0.00 0.00 30 1012.7
20260510004544 58 336 8.0 13.0 0.00 0.00 0.00 29 1012.4
20260510003053 59 313 10.0 17.0 0.00 0.00 0.00 28 1012.2
20260510001538 59 300 9.0 20.0 0.00 0.00 0.00 28 1011.9
20260510000037 60 338 9.0 19.0 0.00 0.00 0.00 27 1011.8
20260509234538 61 327 8.0 14.0 0.00 0.00 0.00 28 1011.5
20260509233036 61 338 8.0 18.0 0.00 0.00 0.00 27 1011.4
20260509231534 61 360 10.0 18.0 0.00 0.00 0.00 27 1011.2
20260509230030 61 329 10.0 20.0 0.00 0.00 0.00 29 1010.9
20260509224528 62 11 9.0 25.0 0.00 0.00 0.00 27 1010.7
20260509223025 62 333 13.0 23.0 0.00 0.00 0.00 28 1010.4
20260509221627 62 5 8.0 20.0 0.00 0.00 0.00 27 1010.3
20260509220027 62 360 7.0 19.0 0.00 0.00 0.00 29 1010.1
20260509214520 63 308 10.0 19.0 0.00 0.00 0.00 29 1009.8
20260509213019 63 346 11.0 24.0 0.00 0.00 0.00 29 1009.7
20260509211519 63 28 11.0 22.0 0.00 0.00 0.00 29 1009.6
20260509210016 63 302 14.0 21.0 0.00 0.00 0.00 30 1009.3